{"data":{"norad_id":60587,"intl_designator":"2024-150E","name":"STARLINK-31911","alt_names":[],"object_type":"PAYLOAD","status":"ACTIVE","operator":null,"country":"US","launch_date":"2024-08-20","launch_site_code":"AFETR","launch_vehicle":null,"mission":null,"orbit_class":"UNKNOWN","rcs_meters":null,"size_class":null,"mass_kg":null,"dimensions":null,"purposes":["comms"],"wikipedia_slug":null,"has_3d_model":false,"image_url":null,"decayed_at":null,"tle_current":{"epoch":"2026-09-21T20:11:26.854656Z","epoch_age_seconds":72519,"freshness":"FRESH","line1":"1 60587U 24150E   26264.84128304 -.00000227  00000+0  44268-5 0  9998","line2":"2 60587  53.1591 111.6276 0001225  91.7643 268.3500 15.34385652118057","mean_motion":15.34385652,"eccentricity":0.0001225,"inclination_deg":53.1591,"raan_deg":111.6276,"arg_perigee_deg":91.7643,"mean_anomaly_deg":268.35,"bstar":4.4268e-6,"rev_number":11805,"period_min":93.84863564926,"perigee_km":461.90787766561,"apogee_km":463.58389397264,"semimajor_km":6840.8828858191,"source":"CELESTRAK","updated_at":"2026-09-22T09:00:49.239164Z"}}}